[[{"header":{"parameterUnit":"m.s-1","parameterCategory":1,"la1":30.2991,"la2":30.254,"lo1":-89.0895,"lo2":-89.0444,"dy":0.0017,"dx":0.0017,"nx":28,"ny":28,"refTime":"2023-07-28T03:00:00:Z","depth":0,"parameterNumber":2,"parameterNumberName":"U-component_of_WINDS"},"data":[0,0,0,0,0,0,0,0,0,0,0,0,0,0,0,0,0,0,0,0,0,0,0,0,0,0,0,0,0,0,0,0,0,0,0,0,0,0,0,0,0,0,0,0,0,0,0,0,0,0,0,0,0,0,0,0,0,0,1.8278,1.8278,0,1.8279,1.8279,1.8279,1.8238,1.8237,1.8236,1.8235,1.8236,1.8237,1.8238,0,0,0,0,0,0,0,0,0,0,0,0,0,1.8238,1.8239,1.8278,1.8278,1.8278,1.8279,1.8279,1.8279,1.8238,1.8237,1.8235,1.8234,1.8235,1.8237,1.8238,0,0,0,0,0,0,0,0,0,0,0,0,0,1.8249,1.824,1.8278,1.8258,1.8256,1.8279,1.8279,1.8279,1.8238,1.8237,1.8235,1.8233,1.8235,1.8236,1.8238,1.8281,0,0,1.8243,1.8244,0,0,0,0,0,0,0,0,1.8249,1.8251,1.8261,1.8259,1.8257,1.8257,1.8266,1.828,1.8239,1.8245,1.8234,1.8233,1.8244,1.8245,1.8249,1.8281,1.8281,1.8243,1.8244,1.8245,1.8245,0,0,0,0,0,0,0,1.8248,1.8251,1.8279,1.8261,1.8259,1.8248,1.8248,1.8268,1.8254,1.8244,1.8241,1.8242,1.8243,1.8247,1.8248,1.8281,1.8243,1.8244,1.8245,1.8246,1.8347,1.8349,0,0,0,0,0,0,1.825,1.825,1.8279,1.8279,1.8249,1.825,1.825,1.8259,1.8253,1.8251,1.8243,1.824,1.8245,1.8247,1.8248,1.8296,1.8245,1.8246,1.8247,1.8346,1.8348,1.835,0,0,0,0,0,0,1.825,1.8253,1.8278,1.8264,1.8266,1.8252,1.8263,1.8259,1.8264,1.8253,1.825,1.8251,1.8244,1.8246,1.8273,1.8296,1.8247,1.8248,1.8344,1.8346,1.8349,1.8395,0,0,0,0,0,0,1.8249,1.8253,1.827,1.8264,1.8267,1.8303,1.8264,1.8261,1.8267,1.8262,1.8259,1.8257,1.8243,1.8271,1.8274,1.8297,1.825,1.8341,1.8345,1.8348,1.8391,1.8398,1.8405,0,0,0,0,0,1.8247,1.8283,1.8271,1.8274,1.8287,1.8305,1.8306,1.829,1.8269,1.8285,1.8278,1.8257,1.8294,1.8274,1.8278,1.8301,1.834,1.8344,1.8348,1.8388,1.8397,1.8405,0,0,0,0,0,0,1.8292,1.8282,1.8268,1.8303,1.8305,1.8298,1.8318,1.83,1.8308,1.8304,1.8283,1.8283,1.8312,1.831,1.8288,1.8342,1.8313,1.8318,1.8342,1.8351,1.8358,1.8356,1.8251,0,0,0,0,0,1.8306,1.8321,1.8312,1.8344,1.8345,1.8331,1.8339,1.8325,1.8327,1.8327,1.8322,1.8324,1.8335,1.8343,1.8353,1.8391,1.8389,1.8409,1.8416,1.8422,1.8426,1.8443,1.8452,1.8362,1.8362,1.8362,0,0,1.8335,1.8331,1.8342,1.8352,1.8352,1.8367,1.8332,1.8351,1.8361,1.833,1.8354,1.8351,1.8351,1.8383,1.8397,1.8382,1.845,1.8427,1.8432,1.8432,1.8448,1.8457,1.8464,1.8365,1.8365,1.8364,0,0,1.8394,1.8394,1.8419,1.842,1.842,1.8411,1.8417,1.8412,1.8408,1.8432,1.8408,1.8421,1.8442,1.8443,1.8446,1.8505,1.8486,1.851,1.8545,1.8563,1.857,1.8576,1.8595,1.8602,1.8514,1.8514,1.8514,0,1.843,1.8452,1.8435,1.8454,1.8458,1.8431,1.8455,1.8457,1.8461,1.8464,1.8448,1.8472,1.8471,1.8501,1.8516,1.852,1.8525,1.8509,1.857,1.8576,1.8581,1.8599,1.8607,1.8517,1.8516,1.8516,1.8516,0,1.8495,1.8511,1.8531,1.8534,1.8542,1.8564,1.8549,1.8558,1.8545,1.8537,1.8561,1.8559,1.8567,1.8574,1.8561,1.8602,1.8593,1.8574,1.8544,1.8593,1.8609,1.8616,1.852,1.852,1.8519,1.8518,0,0,1.8582,1.8575,1.8582,1.8582,1.858,1.8592,1.8613,1.862,1.8628,1.8632,1.8647,1.8665,1.8647,1.8651,1.8638,1.8654,1.8698,1.8633,1.8632,1.8643,1.8741,1.8753,1.8762,1.8686,1.8688,1.8689,1.874,0,1.8637,1.8671,1.8656,1.8691,1.8705,1.8678,1.8696,1.8696,1.869,1.87,1.8693,1.8705,1.8681,1.8683,1.8698,1.869,1.8717,1.8686,1.8699,1.87,1.8697,1.8771,1.8784,1.8832,1.8747,1.8748,1.8749,0,1.8707,1.8712,1.8749,1.8743,1.8748,1.8764,1.8769,1.8779,1.8779,1.8773,1.8777,1.876,1.8779,1.8751,1.8776,1.8755,1.876,1.8757,1.8759,1.8757,1.8725,1.8769,1.8848,1.8854,1.8759,1.8758,1.8757,0,1.8763,1.878,1.8803,1.8805,1.8799,1.881,1.8809,1.8807,1.8812,1.8817,1.882,1.8827,1.8831,1.8837,1.8822,1.8803,1.8848,1.882,1.8842,1.8843,1.8851,1.885,1.893,1.8859,1.8859,1.8858,1.8858,0,1.8825,1.8848,1.8828,1.8842,1.8867,1.8849,1.8873,1.8869,1.8867,1.8879,1.8858,1.887,1.8852,1.8862,1.8851,1.8872,1.8875,1.8869,1.8866,1.887,1.887,1.8871,1.8866,1.886,1.886,1.886,1.8859,0,1.8891,1.8879,1.8902,1.8895,1.8894,1.8912,1.8905,1.8917,1.8909,1.8925,1.8928,1.8915,1.8926,1.8913,1.8923,1.8915,1.8943,1.8936,1.8943,1.894,1.8963,1.896,1.9043,1.9052,1.8978,1.8978,1.8979,0,1.8931,1.8947,1.8941,1.8948,1.8947,1.8958,1.8963,1.8946,1.8952,1.8953,1.8965,1.8974,1.8979,1.8998,1.8989,1.8996,1.8987,1.9016,1.8988,1.8991,1.8985,1.8983,1.8984,1.9021,1.9022,1.9023,1.9023,0,1.9001,1.8994,1.9002,1.9007,1.9013,1.9017,1.9019,1.9026,1.9008,1.9016,1.9026,1.9031,1.904,1.9049,1.9054,1.9051,1.9034,1.9033,1.9038,1.9041,1.9043,1.9039,1.8956,1.903,1.9029,1.9029,1.9029,1.9028,1.9053,1.9066,1.9063,1.9072,1.9072,1.9074,1.9084,1.9077,1.9086,1.9091,1.9082,1.9094,1.9093,1.9097,1.9097,1.9106,1.9094,1.9102,1.9103,1.9105,1.9107,1.9044,1.9107,1.9107,1.9107,1.9107,1.9107,0,1.912,1.9117,1.9125,1.9128,1.9135,1.9119,1.912,1.9126,1.9137,1.9137,1.9143,1.9155,1.9163,1.9155,1.9161,1.917,1.9162,1.9172,1.917,1.9169,1.9119,1.9113,1.9178,1.9178,1.9178,1.9178,1.9178,1.9178,1.9155,1.9175,1.9167,1.9187,1.9183,1.9195,1.9197,1.9198,1.9198,1.9211,1.9217,1.9212,1.9209,1.9215,1.9221,1.9219,1.9221,1.9233,1.9228,1.918,1.9173,1.9166,1.916,1.9234,1.9235,1.9277,1.9277,1.9277]},{"header":{"parameterUnit":"m.s-1","parameterCategory":1,"la1":30.2991,"la2":30.254,"lo1":-89.0895,"lo2":-89.0444,"dy":0.0017,"dx":0.0017,"nx":28,"ny":28,"refTime":"2023-07-28T03:00:00:Z","depth":0,"parameterNumber":3,"parameterNumberName":"V-component_of_WINDS"},"data":[0,0,0,0,0,0,0,0,0,0,0,0,0,0,0,0,0,0,0,0,0,0,0,0,0,0,0,0,0,0,0,0,0,0,0,0,0,0,0,0,0,0,0,0,0,0,0,0,0,0,0,0,0,0,0,0,0,0,4.0367,4.0368,0,4.0389,4.0389,4.039,4.0324,4.0322,4.032,4.0318,4.0337,4.034,4.0342,0,0,0,0,0,0,0,0,0,0,0,0,0,4.0265,4.0267,4.0367,4.0368,4.0368,4.0389,4.0389,4.039,4.0324,4.0322,4.0319,4.0317,4.0336,4.0339,4.0342,0,0,0,0,0,0,0,0,0,0,0,0,0,4.03,4.0268,4.0367,4.0338,4.0335,4.0389,4.0389,4.039,4.0325,4.0322,4.0319,4.0316,4.0335,4.0339,4.0343,4.0425,0,0,4.0353,4.0355,0,0,0,0,0,0,0,0,4.0298,4.0304,4.0342,4.034,4.0337,4.0351,4.036,4.0401,4.0325,4.0329,4.0318,4.0314,4.0344,4.0347,4.0357,4.0426,4.0427,4.0354,4.0356,4.0357,4.0358,0,0,0,0,0,0,0,4.0296,4.0303,4.0376,4.0342,4.034,4.0322,4.0324,4.0368,4.0353,4.0328,4.0323,4.0327,4.0342,4.0354,4.0357,4.0427,4.0354,4.0357,4.0359,4.036,4.0562,4.0565,0,0,0,0,0,0,4.0298,4.0301,4.0375,4.0377,4.031,4.0326,4.0328,4.0349,4.0352,4.035,4.033,4.0324,4.0349,4.0353,4.0358,4.0453,4.0357,4.0361,4.0363,4.0559,4.0563,4.0566,0,0,0,0,0,0,4.0296,4.0305,4.0374,4.0338,4.0345,4.0331,4.0356,4.0351,4.0363,4.0353,4.035,4.0345,4.0347,4.0353,4.0408,4.0453,4.0362,4.0366,4.0555,4.056,4.0564,4.0645,0,0,0,0,0,0,4.0293,4.0305,4.0337,4.0339,4.0347,4.0426,4.0358,4.0354,4.037,4.0363,4.0367,4.0364,4.0345,4.0403,4.0412,4.0456,4.0368,4.0551,4.0557,4.0563,4.0638,4.0652,4.0664,0,0,0,0,0,4.029,4.0359,4.0339,4.0348,4.0388,4.0429,4.0434,4.0411,4.0374,4.0405,4.0399,4.0364,4.0447,4.041,4.0419,4.0465,4.0548,4.0555,4.0562,4.0633,4.0649,4.0664,0,0,0,0,0,0,4.0362,4.0358,4.0337,4.0408,4.042,4.0418,4.0457,4.043,4.0451,4.0443,4.0413,4.0414,4.0475,4.0475,4.0434,4.0543,4.0491,4.05,4.0541,4.0557,4.0569,4.0568,4.0371,0,0,0,0,0,4.0386,4.0421,4.0416,4.048,4.0486,4.0471,4.0488,4.047,4.0479,4.0484,4.0481,4.0491,4.0519,4.0538,4.0563,4.0638,4.0637,4.0674,4.0687,4.0697,4.0705,4.0743,4.0759,4.059,4.059,4.059,0,0,4.0436,4.0439,4.0463,4.0494,4.05,4.0536,4.0475,4.0516,4.0541,4.0489,4.0542,4.054,4.0549,4.0615,4.0644,4.0617,4.0752,4.0706,4.0715,4.0717,4.0753,4.0769,4.0783,4.0595,4.0594,4.0593,0,0,4.0546,4.0552,4.0605,4.0613,4.0624,4.0613,4.0625,4.0628,4.0625,4.0677,4.0639,4.0668,4.0717,4.0725,4.0735,4.0847,4.0815,4.0856,4.0922,4.0959,4.0973,4.0984,4.1023,4.1037,4.0864,4.0864,4.0864,0,4.0607,4.066,4.0636,4.0679,4.0693,4.0648,4.07,4.0709,4.0727,4.0737,4.0707,4.0767,4.077,4.0836,4.0863,4.0874,4.0886,4.0855,4.0973,4.0984,4.0995,4.1031,4.1046,4.0869,4.0869,4.0868,4.0868,0,4.0734,4.0771,4.0812,4.0832,4.085,4.0898,4.0879,4.0901,4.0881,4.0872,4.0925,4.0927,4.0952,4.0966,4.0947,4.1029,4.1012,4.0978,4.0924,4.1016,4.105,4.1063,4.0876,4.0874,4.0873,4.0872,0,0,4.089,4.0894,4.0909,4.0917,4.0925,4.0953,4.0997,4.1022,4.104,4.1054,4.109,4.1132,4.11,4.1112,4.1093,4.1126,4.1213,4.1088,4.1088,4.111,4.1302,4.1327,4.1343,4.1192,4.1195,4.1197,4.1301,0,4.0996,4.1074,4.1053,4.113,4.1163,4.112,4.1159,4.1167,4.1161,4.1187,4.1179,4.1209,4.1166,4.1172,4.1203,4.1196,4.1251,4.1188,4.1224,4.1225,4.1222,4.1361,4.1387,4.1485,4.1314,4.1316,4.1318,0,4.1132,4.1151,4.1232,4.1233,4.1246,4.1281,4.1301,4.1327,4.1335,4.1328,4.1341,4.1315,4.1357,4.1304,4.1361,4.1319,4.1332,4.1331,4.1334,4.1336,4.1277,4.1365,4.1516,4.1531,4.1338,4.1337,4.1335,0,4.1236,4.1282,4.1336,4.1343,4.1347,4.1372,4.1374,4.1379,4.1395,4.1412,4.1422,4.1443,4.1455,4.1472,4.1452,4.1415,4.1512,4.1457,4.1505,4.1506,4.1527,4.1526,4.1681,4.1538,4.1537,4.1537,4.1537,0,4.1357,4.1408,4.1382,4.1415,4.147,4.1444,4.1499,4.1496,4.1501,4.1531,4.1496,4.1525,4.1497,4.1524,4.1508,4.1557,4.1563,4.1557,4.1552,4.156,4.156,4.1567,4.156,4.1541,4.154,4.1539,4.1539,0,4.1482,4.1468,4.1523,4.1521,4.1522,4.1562,4.156,4.159,4.158,4.1619,4.1627,4.1612,4.1641,4.1623,4.1652,4.1642,4.1705,4.1691,4.1703,4.1699,4.1748,4.1743,4.1912,4.1933,4.1777,4.1779,4.178,0,4.156,4.1598,4.16,4.1619,4.1623,4.1653,4.1669,4.1645,4.1662,4.1673,4.1701,4.1728,4.1747,4.1795,4.1786,4.1808,4.1794,4.1852,4.1797,4.1803,4.1794,4.1791,4.1794,4.1863,4.1865,4.1866,4.1867,0,4.17,4.169,4.1714,4.1736,4.1756,4.1772,4.1784,4.1801,4.1776,4.1798,4.1827,4.1843,4.1872,4.1898,4.1917,4.1918,4.1888,4.1885,4.1897,4.1905,4.1909,4.1906,4.1732,4.1881,4.1879,4.1878,4.1878,4.1877,4.1803,4.1834,4.184,4.1868,4.1875,4.1887,4.1914,4.1908,4.1933,4.1956,4.1939,4.1974,4.198,4.2001,4.2006,4.2032,4.2008,4.2026,4.2031,4.2035,4.2042,4.1906,4.2035,4.2035,4.2035,4.2034,4.2034,0,4.1939,4.1941,4.1967,4.1985,4.2007,4.1978,4.199,4.201,4.2041,4.2049,4.2069,4.2102,4.2127,4.212,4.2142,4.2164,4.2151,4.217,4.2168,4.2169,4.2062,4.2049,4.2181,4.2181,4.2181,4.2181,4.218,4.218,4.2012,4.2063,4.2054,4.2107,4.2108,4.2142,4.2151,4.2162,4.2168,4.2207,4.2228,4.2223,4.2225,4.2246,4.2267,4.2264,4.2274,4.2298,4.229,4.2191,4.2176,4.2162,4.215,4.2301,4.2301,4.2394,4.2395,4.2396]}]]